Weather in Nyashabozh

Russia / Komi Republic     65°27′58″N   53°50′34″E
temp.,
°C
wind,
m/s
gust,
m/s
humid.,
%
clouds,
%
prec.,
mm/h
press.,
hPa
HPBL,
m
24 september, fri
fri2400:00+3s2395100 0.0 102553
03:00+2s2295100 0.0 102432
06:00+2s2496100 0.0 102476
09:00+7sse257368 0.0 1023329
12:00+11sse355876 0.0 1023668
15:00+11se366091 0.0 1022704
18:00+6se278714 0.0 1022140
21:00+4se299442 0.0 1022188
25 september, sat
sat2500:00+3se2896100 0.0 1022166
03:00+3se210955 0.0 1021226
06:00+3ese3109435 0.0 1020271
09:00+8se41373100 0.0 1019551
12:00+10sse41167100 0.0 1019872
15:00+9sse51371100 0.2 10191068
18:00+9sse41470100 0.1 10201404
21:00+9sse51270100 0.1 10201034
26 september, sun
sun2600:00+7se51285100 0.6 10201105
03:00+6se41291100 1.3 1021586
06:00+6se41292100 1.4 1021568
09:00+5se41390100 2.1 1022744
12:00+6se41188100 0.9 1024672
15:00+6se41087100 1.7 1025632
18:00+6sse41182100 0.0 1026599
21:00+5sse31080100 0.3 1028528
27 september, mon
mon2700:00+4se387992 0.0 1029397
03:00+3se278595 0.0 1030233
06:00+2se278583 0.0 1031246
09:00+4s3671100 0.0 1031416
12:00+6ssw3563100 0.0 1031669
15:00+5sw2578100 0.1 1031753
18:00+4ssw2691100 0.4 1030411
21:00+5sw2694100 0.6 1029312
28 september, tue
tue2800:00+5sw269898 0.7 1028250
03:00+5wsw2698100 0.7 1027201
06:00+5w139899 0.4 1026111
09:00+7nw248840 0.8 1025278
12:00+9nnw24735 0.6 1025721
15:00+9n24775 0.9 1025561
18:00+4n119217 0.0 102510
21:00+3wnw119426 0.0 102510